Западная Двина

Россия / Тверская область     56°15′34″N   32°04′16″E
темп.,
°C
ветер,
м/с
пор.,
м/с
влажн.,
%
обл.,
%
осадки,
мм/ч
давл.,
гПа
погр.,
м
23 октября, сб
сб2300:00+5юз61476100 0.0 9991351
03:00+6юз61375100 0.0 9991123
06:00+4юз51396100 0.5 9971163
09:00+5з61179100 2.1 10001121
12:00+6зюз510765 0.1 10031181
15:00+6зюз6107582 0.6 10031145
18:00+4зюз41096100 0.3 1005856
21:00+3з4995100 2.1 1007804
24 октября, вс
вс2400:00+3з51196100 0.7 1009778
03:00+3зсз51196100 1.2 1011838
06:00+2сз51192100 0.4 1015899
09:00+2сз51080100 0.6 10181349
12:00+3сз597195 0.1 10211354
15:00+4ссз486957 0.2 10231242
18:00+1сз498227 0.1 1025576
21:000сз268691 0.1 1027221
25 октября, пн
пн2500:00−1зсз24865 0.0 102895
03:00−1зюз239249 0.0 1029105
06:00−1юз2686100 0.0 1029232
09:000ююз397995 0.0 1029325
12:00+4юз51070100 0.0 1028549
15:00+5юз511715 0.0 1026786
18:00+3юз413805 0.0 1025513
21:00+2юз414836 0.0 1024460
26 октября, вт
вт2600:00+2юз41385100 0.0 1024427
03:00+2юз41384100 0.0 1023411
06:00+2юз41383100 0.0 1021422
09:00+2юз41379100 0.0 1020479
12:00+5юз41269100 0.0 1019573
15:00+6юз4106696 0.0 1018685
18:00+4юз41174100 0.0 1018429
21:00+3юз41279100 0.0 1018395
27 октября, ср
ср2700:00+3ююз41184100 0.0 1017334
03:00+3ююз41187100 0.0 1015356
06:00+3юз41291100 1.2 1014486
09:00+4зюз41096100 2.4 1014491
12:00+6з41093100 0.1 1014711
15:00+7з4880100 0.2 1015986
18:00+7з41087100 0.2 1017636
21:00+5з310925 0.3 1018383